Location: Cuiry
(49.3858°N, 3.7708°E)
Time: 00:32:37
(UTC+00:00)

Dummy Sat-01 - Pass Details

Date: 12 January 2026
Orbit: 476 x 491 km, 86.3° (Epoch: 17 February)

Event Time Altitude Azimuth Distance (km) Brightness Sun altitude
Rises 17:32:29 0° 358° (N) 2,570 8.1 -12.9°
Reaches altitude 10° 17:34:37 10° 2° (N) 1,681 7.1 -13.3°
Maximum altitude 17:38:15 63° 85° (E) 546 4.5 -13.8°
Drops below altitude 10° 17:41:49 10° 167° (SSE) 1,656 7.3 -14.4°
Sets 17:43:54 0° 170° (S) 2,528 8.3 -14.7°
